Voltar ao catálogo

SCD 2

AtivoCiênciaLEO
NORAD 25504·PAYLOAD·🇧🇷 Brazil

Lançado Oct 23, 1998 de Cape Canaveral Space Force Station

Loading…

Próximas Passagens (próximas 24 horas)

TLE

AtualizadoSource: Space-Track

Época: Sep 14, 2026, 06:52 UTC

1 25504U 98060A   26257.28646880  .00000357  00000-0  48735-4 0  9999
2 25504  24.9945 242.6752 0016660 345.7625  36.9124 14.45552376473236

Acompanhe SCD 2 em tempo real com AllMySat

Download on the App Store